Showing default

GAOFEN 12 04, 57654

Orbit data source: Space-Track

GAOFEN 12 04, 57654 is a payload satellite owned by PLA SSF (CN) in SSO that was launched on Sun, 20 Aug 2023 UTC via a CHANG ZHENG 4C launch vehicle from the Jiuquan Satellite Launch Center, China (JSC). Payload-class satellites include a variety of spacecraft equipped with specific instruments for various scientific and technological missions. These include communications satellites like Starlink; space stations such as the ISS; scientific satellites like the Hubble; Earth observation satellites from companies like Planet Labs, Umbra, and HawkEye 360; GPS; miniature CubeSats for education and research; and military/defense satellites.

Loading next visibility...
Identifier
57654, 2023-123A
Orbit
SSO
Country
Flag of CNCN / PRC
Related business
Manufacturer
SAST
Mission
Operational Defense Radar Imaging
Bus & Motor
CS-L3000B?, Unknown motor
Mass
~3,000 kg wet, ~3,000 kg dry
Launch date (UTC)
2023-08-20 (2 years ago)
Launch vehicle
CHANG ZHENG 4C
Launch site
Jiuquan Satellite Launch Center, China (JSC)
Object type
Payload
Rocket body
Debris
Shape & HBR
Box + 3 Pan, 4.0 m
Radar Cross Section
10.846 m², Large (>1 m²)

Expand to show TLE details & history
Last TLE update: 10 hours ago

TLE from 10 hours ago
0 GAOFEN 12 04
1 57654U 23123A   25309.95130432  .00001860  00000-0  25559-3 0  9998
2 57654  97.9084 226.2778 0001769  79.6215 280.5196 14.79527202119611
Epoch: 2025-11-05T22:49Z
TLE epoch observation values (Epoch: 2025-11-05T22:49:52.693Z)
Latitude
-0.00001°
Longitude
-161.60836°
Altitude
633.611 km
Speed
7.542 km/s
True Right ascension
15h 05m 06s
True Declination
0° 00' 00"
Sunlit
Object was in daylight at epoch
Visualization orbit readout
Latitude
Unknown
Longitude
Unknown
Altitude
Unknown
Speed
Unknown
Apparent Right ascension
Unknown
Apparent Declination
Unknown
Sunlit
N/A
Visualization observer readout
Local Sidereal Time
04:31:28
Azimuth
Unknown
Elevation
Unknown
Doppler factor
Unknown
Orbital elements
Apogee altitude
629.098 km
Perigee altitude
626.619 km
Semi-major axis
7,005.996 km
Eccentricity
0.00018
Inclination
97.9084°
RAAN
226.2778°
Arg. of periapsis
79.6215°
True anomaly
280.49967°
Mean anomaly
280.5196°
Eccentric anomaly
280.50963°
Mean motion
3.70116 °/min
Orbital period
97.27 mins
BSTAR
0.00025559
Loading maneuver chart data...
Computing Atmospheric mass density...
Loading historical data...
Loading historical data...
Loading historical data...
Loading historical data...
Loading historical data...
Loading historical data...
Loading historical data...
Other satellites on launch #123 in the year 2023 (2023-08-20 UTC)

Documentation

Showing up to 5 results
|